EN

Hourly Weather Brzezno

Today, 20 April, Tuesday

Time Temperature Precipitation Wind Pressure Humidity
00:00 +10°C° 0 mm 1 mps 750 mmHg 81%
01:00 +8°C° 0 mm 2 mps 750 mmHg 84%
02:00 +9°C° 0 mm 1 mps 750 mmHg 85%
03:00 +8°C° 0 mm 1 mps 750 mmHg 87%
04:00 +8°C° 0 mm 1 mps 750 mmHg 88%
05:00 +9°C° 0 mm 1 mps 750 mmHg 85%
06:00 +10°C° 0 mm 1 mps 750 mmHg 81%
07:00 +11°C° 0 mm 1 mps 750 mmHg 77%
08:00 +12°C° 0.2 mm 1 mps 750 mmHg 70%
09:00 +13°C° 0.2 mm 2 mps 749 mmHg 63%
10:00 +14°C° 0.2 mm 2 mps 749 mmHg 56%
11:00 +15°C° 0.1 mm 2 mps 749 mmHg 53%
12:00 +15°C° 0.1 mm 2 mps 749 mmHg 50%
13:00 +15°C° 0.1 mm 2 mps 748 mmHg 47%
14:00 +15°C° 0 mm 2 mps 748 mmHg 49%
15:00 +15°C° 0 mm 2 mps 748 mmHg 51%
16:00 +14°C° 0 mm 2 mps 747 mmHg 54%
17:00 +13°C° 0 mm 2 mps 747 mmHg 62%
18:00 +10°C° 0 mm 2 mps 747 mmHg 70%
19:00 +9°C° 0 mm 2 mps 747 mmHg 77%
20:00 +8°C° 0 mm 2 mps 747 mmHg 79%
21:00 +7°C° 0 mm 2 mps 747 mmHg 81%
22:00 +7°C° 0 mm 1 mps 747 mmHg 83%
23:00 +7°C° 0 mm 1 mps 747 mmHg 83%

Tomorrow, 21 April, Wednesday

Time Temperature Precipitation Wind Pressure Humidity
00:00 +7°C° 0 mm 1 mps 746 mmHg 83%
01:00 +5°C° 0 mm 0 mps 746 mmHg 83%
02:00 +5°C° 0 mm 0 mps 746 mmHg 84%
03:00 +6°C° 0 mm 1 mps 746 mmHg 84%
04:00 +6°C° 0 mm 1 mps 746 mmHg 85%
05:00 +7°C° 0 mm 1 mps 746 mmHg 80%
06:00 +8°C° 0 mm 1 mps 746 mmHg 75%
07:00 +10°C° 0 mm 1 mps 746 mmHg 70%
08:00 +10°C° 0 mm 2 mps 745 mmHg 64%
09:00 +12°C° 0 mm 2 mps 745 mmHg 59%
10:00 +14°C° 0 mm 2 mps 745 mmHg 53%
11:00 +13°C° 0 mm 3 mps 745 mmHg 50%
12:00 +14°C° 0 mm 3 mps 745 mmHg 47%
13:00 +14°C° 0 mm 3 mps 744 mmHg 44%
14:00 +14°C° 0 mm 3 mps 744 mmHg 47%
15:00 +14°C° 0 mm 3 mps 744 mmHg 49%
16:00 +14°C° 0 mm 2 mps 744 mmHg 52%
17:00 +13°C° 0.1 mm 2 mps 744 mmHg 60%
18:00 +10°C° 0.1 mm 2 mps 744 mmHg 67%
19:00 +8°C° 0.1 mm 2 mps 744 mmHg 75%
20:00 +9°C° 0.1 mm 1 mps 744 mmHg 78%
21:00 +8°C° 0.1 mm 1 mps 744 mmHg 82%
22:00 +8°C° 0.1 mm 1 mps 744 mmHg 86%
23:00 +6°C° 0.3 mm 2 mps 744 mmHg 88%

Day after tomorrow, 22 April, Thursday

Time Temperature Precipitation Wind Pressure Humidity
00:00 +5°C° 0.3 mm 3 mps 744 mmHg 89%
01:00 +4°C° 0.3 mm 4 mps 744 mmHg 91%
02:00 +3°C° 0.1 mm 4 mps 744 mmHg 89%
03:00 +3°C° 0.1 mm 4 mps 744 mmHg 87%
04:00 +1°C° 0.1 mm 4 mps 744 mmHg 85%
05:00 +1°C° 0 mm 5 mps 744 mmHg 83%
06:00 +2°C° 0 mm 5 mps 744 mmHg 80%
07:00 +2°C° 0 mm 6 mps 745 mmHg 78%
08:00 +2°C° 0 mm 6 mps 745 mmHg 76%
09:00 +2°C° 0 mm 6 mps 745 mmHg 74%
10:00 +2°C° 0 mm 6 mps 745 mmHg 72%
11:00 +2°C° 0.1 mm 6 mps 745 mmHg 75%
12:00 +2°C° 0.1 mm 6 mps 745 mmHg 78%
13:00 +3°C° 0.1 mm 6 mps 745 mmHg 82%
14:00 +3°C° 0.4 mm 6 mps 745 mmHg 79%
15:00 +4°C° 0.4 mm 6 mps 745 mmHg 77%
16:00 +5°C° 0.4 mm 5 mps 745 mmHg 74%
17:00 +3°C° 0.2 mm 5 mps 745 mmHg 76%
18:00 +3°C° 0.2 mm 4 mps 745 mmHg 78%
19:00 +1°C° 0.2 mm 4 mps 745 mmHg 79%
20:00 +1°C° 0 mm 4 mps 745 mmHg 81%
21:00 0°C° 0 mm 4 mps 745 mmHg 82%
22:00 -1°C° 0 mm 5 mps 746 mmHg 83%
23:00 -1°C° 0.2 mm 5 mps 746 mmHg 87%

23 April, Friday

Time Temperature Precipitation Wind Pressure Humidity
00:00 -1°C° 0.2 mm 5 mps 746 mmHg 90%
01:00 -1°C° 0.2 mm 5 mps 746 mmHg 94%
02:00 -1°C° 0 mm 5 mps 746 mmHg 91%
03:00 -1°C° 0 mm 5 mps 746 mmHg 89%
04:00 -1°C° 0 mm 5 mps 746 mmHg 86%
05:00 0°C° 0.2 mm 5 mps 746 mmHg 89%
06:00 0°C° 0.2 mm 5 mps 747 mmHg 93%
07:00 0°C° 0.2 mm 5 mps 747 mmHg 96%
08:00 -1°C° 0.3 mm 6 mps 747 mmHg 95%
09:00 +1°C° 0.3 mm 6 mps 748 mmHg 94%
10:00 +1°C° 0.3 mm 6 mps 748 mmHg 93%
11:00 0°C° 0.4 mm 7 mps 749 mmHg 86%
12:00 +2°C° 0.4 mm 7 mps 749 mmHg 79%
13:00 +1°C° 0.4 mm 8 mps 750 mmHg 72%
14:00 +1°C° 0.1 mm 8 mps 750 mmHg 66%
15:00 +2°C° 0.1 mm 7 mps 751 mmHg 61%
16:00 +2°C° 0.1 mm 7 mps 751 mmHg 55%
17:00 +1°C° 0 mm 6 mps 752 mmHg 57%
18:00 0°C° 0 mm 5 mps 752 mmHg 60%
19:00 0°C° 0 mm 3 mps 752 mmHg 63%
20:00 -1°C° 0 mm 3 mps 752 mmHg 64%
21:00 -1°C° 0 mm 3 mps 752 mmHg 66%
22:00 -2°C° 0 mm 2 mps 752 mmHg 68%
23:00 -1°C° 0 mm 3 mps 752 mmHg 69%

24 April, Saturday

Time Temperature Precipitation Wind Pressure Humidity
00:00 -1°C° 0 mm 3 mps 752 mmHg 71%
01:00 -1°C° 0 mm 3 mps 752 mmHg 72%
02:00 -1°C° 0 mm 3 mps 752 mmHg 72%
03:00 -1°C° 0 mm 3 mps 751 mmHg 72%
04:00 -2°C° 0 mm 3 mps 751 mmHg 72%
05:00 0°C° 0 mm 3 mps 751 mmHg 69%
06:00 0°C° 0 mm 4 mps 751 mmHg 67%
07:00 +3°C° 0 mm 4 mps 751 mmHg 64%
08:00 +4°C° 0 mm 4 mps 751 mmHg 58%
09:00 +5°C° 0 mm 4 mps 751 mmHg 52%
10:00 +6°C° 0 mm 4 mps 751 mmHg 46%
11:00 +6°C° 0 mm 4 mps 751 mmHg 47%
12:00 +6°C° 0 mm 5 mps 751 mmHg 48%
13:00 +7°C° 0 mm 5 mps 751 mmHg 49%
14:00 +6°C° 0 mm 5 mps 751 mmHg 50%
15:00 +5°C° 0 mm 6 mps 752 mmHg 51%
16:00 +4°C° 0 mm 6 mps 752 mmHg 52%
17:00 +2°C° 0 mm 5 mps 752 mmHg 60%
18:00 +1°C° 0 mm 4 mps 752 mmHg 69%
19:00 +1°C° 0 mm 2 mps 752 mmHg 78%
20:00 -1°C° 0 mm 2 mps 753 mmHg 79%
21:00 -1°C° 0 mm 2 mps 753 mmHg 81%
22:00 -2°C° 0 mm 2 mps 753 mmHg 82%
23:00 -2°C° 0 mm 2 mps 753 mmHg 80%

25 April, Sunday

Time Temperature Precipitation Wind Pressure Humidity
00:00 -2°C° 0 mm 3 mps 753 mmHg 77%
01:00 -2°C° 0 mm 3 mps 753 mmHg 75%
02:00 -2°C° 0 mm 3 mps 753 mmHg 76%
03:00 -2°C° 0 mm 3 mps 753 mmHg 77%
04:00 -2°C° 0 mm 3 mps 753 mmHg 78%
05:00 -2°C° 0 mm 4 mps 753 mmHg 73%
06:00 0°C° 0 mm 4 mps 753 mmHg 68%
07:00 +2°C° 0 mm 5 mps 753 mmHg 63%
08:00 +3°C° 0.1 mm 6 mps 754 mmHg 59%
09:00 +4°C° 0.1 mm 7 mps 754 mmHg 54%
10:00 +4°C° 0.1 mm 7 mps 754 mmHg 50%
11:00 +4°C° 0 mm 7 mps 754 mmHg 49%
12:00 +5°C° 0 mm 7 mps 755 mmHg 48%
13:00 +5°C° 0 mm 7 mps 755 mmHg 47%
14:00 +4°C° 0 mm 7 mps 755 mmHg 49%
15:00 +4°C° 0 mm 7 mps 755 mmHg 50%
16:00 +3°C° 0 mm 7 mps 755 mmHg 52%
17:00 +2°C° 0 mm 5 mps 755 mmHg 59%
18:00 0°C° 0 mm 4 mps 756 mmHg 66%
19:00 0°C° 0 mm 3 mps 756 mmHg 73%
20:00 -1°C° 0 mm 3 mps 756 mmHg 75%
21:00 -1°C° 0 mm 2 mps 756 mmHg 77%
22:00 -2°C° 0 mm 2 mps 756 mmHg 79%
23:00 -2°C° 0 mm 2 mps 755 mmHg 78%
Show more

We Need Your Consent

Meteoprog and our Service Providers may store and access personal data such as cookies, device identifiers or other similar technologies on your device and process such data to personalise content and ads, as well as provide social media features and to analyse the traffic.

  • Store and/or access information on your device

    Cookies, device identifiers or other information can be stored or accessed on your device for the purposes indicated above.

  • Personalised ads and content, ad and content measurement, audience insights, and products development

    Ads and content can be personalised based on a profile. More data can be added to better personalise ads and content. Ad and content performance can be measured. Insights about the audience who saw the ads and content can be derived. Such data can be used to develop or improve user’s experience, systems and software.

By clicking ‘I Agree’ you will allow the use of indicated cookies, device identifiers, web beacons or other similar technologies. Your settings can be changed in the browser on your device.

For certain purposes, legitimate interests may be relied on, rather than consent. You can read more about this in our Privacy and Cookie Policy.